Theta_e
315 316 315 316 319 321 323 323 320 320 320 314 314 317 317 318 318 320 321 322 325 327 322 325 331 328 328 327 328 327 326 330 327 325 325 333 335 336 338 337 339 339 339 339 337 335 335 333 323 320 322 323 324 326 328 330 331 332 331 330 330 331 330 331 334 334 334 334 332 329 329 330 329 331 332 332 332 333 333 334 333 331 332 332 331 330 330 330 330 330 330 330 329 329 328 328 329
316 319 318 319 319 321 323 323 320 317 315 312 314 317 316 318 319 322 323 322 324 322 321 327 330 326 325 325 325 326 330 329 327 331 332 334 335 336 337 338 339 338 338 338 338 337 337 332 323 321 322 321 320 321 326 329 330 331 331 331 331 331 331 332 334 335 335 334 329 326 329 330 330 332 332 332 332 332 332 333 332 332 333 333 332 331 331 331 330 329 329 329 329 328 328 328 329
318 321 321 322 322 322 323 322 318 314 312 311 313 317 317 318 321 323 322 321 321 320 323 328 327 325 323 324 326 326 330 328 328 334 335 335 336 336 337 338 339 338 338 338 338 338 337 332 324 321 322 323 322 320 322 325 329 332 333 332 332 331 332 333 334 334 335 332 326 326 330 330 330 331 330 331 331 332 331 330 331 332 333 332 332 331 331 332 330 329 328 328 328 328 329 329 329
319 322 322 324 324 323 324 321 319 315 311 311 312 317 318 320 322 320 320 320 320 322 325 328 328 324 323 325 327 325 329 331 332 335 335 336 337 336 337 339 338 338 337 338 338 338 337 332 325 321 322 322 322 321 320 323 328 331 332 332 332 331 332 333 334 334 335 333 327 327 330 330 330 330 330 331 331 331 331 330 331 333 332 332 332 331 330 330 329 329 328 328 328 329 329 329 329
319 320 321 325 325 323 323 320 319 316 313 313 313 317 319 320 320 319 321 321 320 320 323 328 328 325 324 327 327 326 331 334 333 335 337 336 337 336 337 339 338 337 338 338 338 339 336 332 327 322 322 322 322 321 320 322 326 329 332 332 332 331 331 331 333 334 335 334 331 330 330 330 329 330 331 331 331 331 332 332 332 333 332 332 331 331 329 329 329 329 329 329 329 329 329 329 329
319 319 319 322 321 320 321 317 316 315 316 317 315 317 318 317 320 321 321 320 318 316 318 324 327 326 328 328 327 329 333 334 334 335 336 337 336 336 338 339 337 337 337 338 338 339 336 332 330 325 322 323 322 322 320 322 325 328 331 332 333 332 332 332 332 334 335 334 333 331 330 330 330 330 331 330 330 330 331 332 332 333 333 331 330 330 330 330 330 330 329 329 329 329 329 328 328
320 321 321 321 319 320 321 317 315 317 316 316 316 317 317 317 320 321 321 319 317 314 314 320 324 325 327 328 329 332 332 334 335 335 336 337 336 336 339 339 338 337 337 338 338 338 336 333 332 328 324 322 322 322 321 322 324 327 330 332 333 332 332 333 333 334 334 335 333 330 329 330 331 330 330 329 329 329 330 331 332 333 332 330 330 332 331 330 329 329 329 329 329 328 328 327 327
320 322 322 322 320 320 321 318 318 318 314 312 313 315 316 317 320 321 321 320 318 316 316 319 322 323 324 324 331 334 331 333 334 335 336 336 336 337 339 339 338 337 337 338 338 338 336 334 333 331 326 323 323 323 322 322 323 327 330 332 332 332 333 332 332 334 333 334 334 331 328 328 330 330 330 329 328 328 329 330 331 331 331 330 330 331 330 330 329 329 329 328 328 328 328 327 327
319 319 320 322 320 319 318 317 317 316 314 312 312 313 314 316 320 321 320 318 316 317 319 321 320 321 324 324 331 334 332 334 333 335 336 336 336 336 338 338 338 337 338 338 339 338 336 335 334 333 329 325 323 323 323 322 323 325 329 331 330 330 332 330 331 333 332 333 333 331 328 326 329 330 329 329 328 328 328 329 329 329 330 330 330 330 329 329 329 329 329 329 329 328 328 327 326
319 318 321 322 319 317 315 315 316 315 315 314 313 314 314 315 319 321 319 317 315 318 320 318 317 318 323 326 331 333 334 335 334 336 336 336 335 336 338 338 338 337 338 338 339 338 337 336 335 335 331 327 325 323 323 322 322 324 328 330 327 326 329 329 330 332 332 332 332 331 329 326 327 329 329 329 328 328 328 328 328 329 329 330 330 330 330 329 329 329 328 328 328 328 328 328 327
320 319 321 321 317 314 313 314 316 316 315 314 314 313 313 314 317 319 317 316 315 319 319 316 316 319 323 326 330 331 332 335 336 336 336 336 335 336 338 338 338 337 338 338 338 339 338 337 336 336 333 329 327 325 323 323 323 323 325 326 324 324 327 327 329 331 331 331 331 331 330 328 327 328 329 328 328 327 327 328 328 328 328 329 329 329 329 329 328 328 328 328 328 328 328 327 326
320 321 321 319 316 315 315 314 316 317 317 316 316 314 313 313 317 318 316 317 315 319 320 317 319 322 323 325 328 329 332 337 336 336 337 336 335 336 337 337 338 337 338 338 338 338 338 337 337 336 334 331 329 327 324 323 323 323 324 323 323 324 325 324 326 329 330 330 330 331 330 330 329 327 327 328 327 326 327 328 328 328 328 328 329 329 329 328 328 328 328 327 327 327 327 327 326
321 322 322 318 317 317 316 315 316 318 318 317 316 313 312 314 318 318 317 317 315 319 319 317 320 321 322 323 325 328 334 338 336 337 336 336 335 335 336 336 337 337 337 337 337 337 338 338 337 337 335 333 331 329 326 324 324 324 324 322 322 323 323 323 323 325 327 328 328 329 328 328 328 326 326 327 327 326 325 326 327 327 328 328 328 328 328 327 327 327 327 327 327 327 327 327 327
320 322 322 319 315 317 316 316 316 316 316 317 315 311 312 314 315 316 316 317 316 317 314 315 319 319 320 321 323 327 335 337 336 337 336 336 335 335 336 336 337 337 337 337 337 337 337 338 338 338 336 335 333 331 329 326 324 324 324 324 323 323 323 323 322 322 323 324 324 325 325 324 323 323 326 327 327 326 323 324 327 328 328 328 327 327 326 326 326 326 326 326 327 327 327 327 327
319 320 321 320 315 316 316 316 318 316 315 317 313 311 313 312 310 313 315 316 316 312 311 315 316 316 318 320 322 327 337 337 336 337 336 337 335 335 335 335 336 335 336 337 337 337 337 337 337 338 337 336 334 333 332 328 325 324 324 324 324 324 324 324 323 322 322 322 321 322 321 320 319 320 325 327 327 326 323 323 325 326 327 326 326 326 326 325 325 326 326 326 327 327 327 327 327
318 319 320 320 316 316 316 316 318 316 316 316 311 310 315 311 308 312 312 313 314 311 313 317 316 317 317 318 323 330 338 336 336 338 336 337 335 335 335 335 336 335 336 336 337 337 337 337 337 338 337 337 336 335 334 332 329 325 324 325 325 324 324 325 325 324 323 322 320 319 318 317 317 318 324 327 326 327 325 322 323 325 326 326 325 325 325 325 325 325 326 326 326 326 326 327 327
316 319 320 318 316 317 316 316 317 315 316 314 309 311 316 313 308 310 308 310 314 313 314 316 317 319 319 320 322 328 337 336 336 337 336 337 336 335 335 335 335 335 336 335 336 337 337 338 337 337 337 336 336 335 335 334 331 328 326 324 325 325 324 325 325 326 325 324 322 320 318 317 318 319 323 326 326 326 325 322 323 324 324 325 325 324 324 324 324 324 325 325 325 325 326 326 327
317 321 318 316 317 318 317 318 316 315 317 313 311 312 317 315 311 310 310 312 313 313 314 314 317 320 322 322 321 327 335 335 337 337 336 337 336 336 336 335 335 335 335 335 336 336 337 338 337 337 337 336 336 335 335 335 333 331 330 327 325 324 324 325 325 326 327 326 324 322 320 319 320 322 322 324 325 325 324 322 322 324 324 324 323 323 324 324 324 324 324 324 325 325 326 326 326
318 321 317 317 320 317 315 316 314 314 316 314 311 312 315 315 313 311 313 314 313 314 315 314 317 319 322 323 323 328 334 336 337 337 338 337 337 336 336 336 335 335 335 335 335 336 337 337 337 337 337 337 337 336 335 335 334 333 333 331 328 325 324 325 326 326 327 327 326 324 323 321 319 321 319 320 323 323 324 322 320 322 324 323 322 323 323 322 323 323 323 323 324 326 326 326 326
317 318 317 320 320 315 311 313 313 310 312 314 312 311 312 312 312 311 313 315 313 314 315 314 316 317 321 325 326 330 334 337 337 337 338 338 337 336 336 336 335 335 335 335 335 336 336 337 337 337 338 337 337 336 336 335 334 334 333 332 331 328 326 326 326 326 326 327 326 325 325 322 319 318 316 317 320 322 323 322 319 320 322 322 322 323 321 321 322 322 322 323 324 325 325 326 326
317 317 317 318 317 315 312 310 311 308 310 314 312 311 312 310 310 312 314 314 314 315 315 315 316 316 321 325 328 332 335 337 337 338 338 337 338 337 337 336 335 336 335 335 335 335 336 336 337 337 337 336 336 336 336 335 334 334 333 332 332 330 329 328 327 327 327 326 326 326 326 324 321 319 316 317 319 321 322 322 321 321 322 322 322 322 321 320 321 322 322 322 323 324 325 325 325
316 314 313 313 313 315 311 307 308 307 309 311 311 312 312 310 310 313 314 314 315 314 314 315 314 315 323 326 329 333 334 336 337 337 338 337 338 337 337 337 336 336 335 335 335 336 335 336 336 337 337 336 337 336 336 336 334 334 333 333 333 331 330 328 329 329 327 327 326 326 326 325 323 320 318 317 316 318 319 321 321 321 321 321 321 321 320 320 321 321 321 321 321 322 323 325 325
316 313 310 310 310 312 309 307 308 307 310 311 312 312 311 311 312 311 312 315 314 310 310 310 310 318 326 328 330 332 333 336 336 336 337 337 337 337 337 337 337 337 336 336 335 336 336 336 336 336 337 336 336 336 335 336 335 334 334 333 333 332 330 328 329 328 328 327 326 326 326 326 325 323 320 318 316 316 317 317 318 319 320 319 318 320 320 320 321 320 320 319 319 320 322 324 324
315 314 311 309 308 310 307 305 307 307 310 310 309 311 311 313 313 309 310 315 311 307 309 309 311 321 327 328 330 332 333 335 335 336 336 336 337 337 337 337 337 337 337 337 336 336 336 336 336 336 336 336 335 336 336 335 335 334 334 333 333 332 331 329 328 328 328 327 326 325 326 326 326 325 323 321 318 316 315 313 314 315 316 315 315 319 320 320 320 320 320 319 318 319 321 323 324
314 313 310 309 308 307 305 304 305 306 308 307 308 311 311 310 310 308 311 313 310 308 312 316 318 323 326 327 330 333 334 335 336 336 336 336 336 335 335 336 335 336 336 336 336 336 337 336 336 336 336 336 336 336 336 335 334 334 334 334 333 331 331 329 329 328 327 327 326 325 325 326 326 326 325 323 320 318 315 312 311 311 311 311 314 318 319 319 320 319 319 319 318 318 320 322 323
313 312 310 309 308 307 306 306 306 307 307 307 310 312 309 307 307 311 313 310 309 308 313 320 321 322 325 327 329 332 334 335 335 335 335 334 334 334 334 335 335 335 335 335 335 336 336 336 336 336 336 336 336 336 336 335 334 334 334 334 333 332 331 330 329 328 327 327 326 326 325 325 325 326 326 325 323 320 317 314 313 311 308 309 313 316 318 319 319 319 319 319 318 318 319 321 322
310 310 309 309 308 307 308 308 307 307 307 308 311 311 309 307 308 313 313 306 306 309 314 320 321 321 324 327 328 332 333 334 334 334 334 334 333 333 333 334 334 335 335 334 334 335 335 336 336 336 335 335 335 335 336 336 335 334 334 334 333 332 331 331 329 328 328 327 327 327 325 325 325 325 326 326 325 323 320 317 315 313 309 307 310 314 316 318 318 319 319 318 318 318 318 319 321
309 310 311 309 309 309 308 309 308 309 309 308 311 311 309 308 310 313 310 304 306 310 314 320 321 320 323 326 327 330 331 332 333 332 333 333 332 332 332 333 333 334 334 334 334 334 335 335 335 335 335 335 334 334 335 336 335 335 335 334 334 333 331 330 330 329 328 327 327 327 326 325 325 325 326 326 326 325 322 320 318 316 312 308 307 310 314 316 317 318 318 318 318 318 318 318 320
309 311 313 310 310 311 309 310 308 310 310 308 310 311 311 311 312 312 307 303 307 310 313 318 320 320 321 324 325 328 330 330 331 331 332 332 332 332 332 333 333 333 333 333 333 333 335 334 334 335 335 335 334 334 334 334 335 335 334 334 335 334 333 331 330 329 329 328 327 328 328 326 325 324 325 325 325 325 324 323 322 320 317 312 307 307 311 315 316 317 317 317 318 318 318 318 319
310 310 313 312 312 312 310 309 309 310 310 306 309 311 313 314 313 310 305 304 307 311 313 315 318 319 319 321 322 325 327 329 330 330 331 331 332 332 331 332 332 333 333 333 333 333 334 334 333 334 335 335 334 334 334 333 334 335 334 334 334 334 334 334 331 330 330 329 328 328 329 328 326 324 324 324 325 326 325 324 324 323 322 318 312 308 308 312 314 315 316 317 317 317 318 318 318
311 311 312 313 312 311 310 309 310 311 309 306 308 310 312 313 311 307 305 305 307 311 313 313 315 316 316 318 320 322 325 328 328 329 331 331 332 332 332 333 332 332 332 332 333 333 333 333 333 333 334 334 334 334 333 332 332 334 334 333 333 333 333 334 333 332 331 330 330 329 329 329 328 326 325 324 324 325 325 325 325 325 326 323 319 314 309 309 311 312 314 316 317 317 317 317 318
311 310 312 313 311 311 311 309 309 312 310 308 309 311 312 313 310 306 305 306 307 310 312 311 311 312 312 314 315 318 321 325 326 327 329 329 331 331 331 332 332 332 332 332 333 333 333 333 333 333 333 333 333 332 332 331 331 332 332 332 332 332 332 333 333 333 331 331 330 329 328 328 329 329 328 326 325 325 326 326 326 326 326 324 321 317 313 310 310 311 312 314 315 316 317 317 317
310 311 313 314 311 311 311 309 308 310 311 310 310 311 312 313 312 307 305 306 308 309 311 310 310 310 310 311 312 313 316 318 321 323 325 326 328 328 329 330 331 331 331 332 332 332 333 333 332 332 333 333 333 333 331 331 331 331 332 332 332 332 332 332 332 332 332 330 330 330 329 328 328 329 328 328 327 327 327 327 327 326 325 324 321 318 315 311 311 312 312 313 314 315 315 316 317
311 311 313 312 311 309 310 311 309 308 311 312 310 310 312 313 312 309 307 306 308 310 311 311 311 310 311 310 310 310 311 313 316 319 321 323 325 325 327 327 328 329 330 330 331 332 332 332 332 331 331 332 332 333 332 332 331 331 331 331 332 333 333 332 332 332 331 331 331 331 330 329 329 329 329 329 328 328 327 326 327 327 325 324 322 318 314 312 312 312 313 313 314 314 314 315 315
311 311 311 311 310 309 310 311 309 309 311 312 312 311 312 312 312 310 309 307 308 310 310 310 310 311 311 311 310 310 310 311 313 316 316 318 320 322 324 324 325 326 327 328 329 330 332 331 331 331 331 331 331 331 332 331 331 331 331 330 330 332 333 333 332 332 332 332 331 330 329 328 329 329 329 329 329 328 327 326 326 326 325 324 323 319 315 314 313 313 312 313 313 314 313 313 314
312 313 312 311 310 309 310 310 308 308 311 312 312 312 312 313 312 312 311 308 308 310 310 310 310 310 311 311 311 311 311 312 313 313 312 312 313 315 318 320 322 324 325 325 326 328 329 330 330 330 330 330 330 330 330 330 330 331 331 331 330 330 331 331 330 330 329 329 329 328 328 330 330 330 330 330 330 329 328 327 326 326 325 324 324 321 318 316 314 313 312 312 312 313 313 312 313
313 313 313 313 312 309 309 310 307 307 311 313 313 313 312 312 312 313 312 310 309 310 310 311 312 312 313 313 313 313 313 314 313 310 309 309 309 309 311 313 316 320 322 323 324 325 326 328 329 330 330 329 329 329 330 330 330 330 330 331 331 331 332 331 330 330 329 330 330 329 330 331 331 330 330 330 330 330 329 328 327 327 326 324 324 323 321 318 316 313 312 312 312 312 312 312 312
312 311 311 312 313 311 309 310 308 306 310 312 311 311 312 312 313 312 312 311 310 311 312 313 313 314 314 314 314 314 315 314 312 310 309 309 308 308 308 307 309 313 317 319 321 322 324 326 327 328 329 329 329 329 329 330 330 330 330 330 330 331 332 333 333 332 332 332 332 331 332 331 330 329 329 330 330 330 329 328 327 327 327 325 324 322 320 318 315 313 312 312 311 311 311 311 311
312 312 311 311 312 311 309 309 308 306 310 312 311 311 313 314 313 313 313 312 312 312 313 313 313 314 314 313 314 314 315 315 312 311 310 309 307 307 307 307 307 308 311 313 315 320 323 324 325 326 327 327 328 329 328 329 329 330 330 330 329 329 331 332 333 333 333 333 333 333 333 331 328 328 330 330 329 329 329 327 327 327 327 326 324 321 319 316 314 312 312 311 311 310 309 309 310
312 313 311 311 313 312 309 310 309 306 307 310 311 312 314 314 313 313 313 311 311 310 309 310 311 312 313 314 314 312 312 314 313 312 311 310 308 306 306 306 307 307 308 310 311 315 320 322 323 324 326 326 326 327 328 328 328 328 329 329 330 329 329 329 330 330 330 330 330 330 330 329 327 328 331 331 329 329 328 327 327 327 326 325 323 321 319 318 315 314 313 311 310 309 308 309 310
314 315 314 314 314 313 311 311 309 307 306 307 311 311 312 314 314 313 312 308 307 307 307 308 308 309 310 311 312 311 310 311 312 312 312 312 310 308 306 306 306 306 307 308 308 310 314 318 320 322 324 325 325 326 326 327 327 327 327 328 328 329 329 329 329 328 328 327 327 327 327 329 330 331 332 330 330 329 327 327 328 328 326 324 323 321 320 319 317 315 314 313 311 310 309 308 308
313 315 315 314 312 313 313 312 311 311 310 308 309 309 309 313 314 313 312 309 309 309 310 310 310 309 308 308 310 310 309 309 309 310 311 311 310 309 307 306 305 305 305 307 307 307 309 312 315 319 321 323 324 324 325 326 326 326 326 327 327 327 328 329 329 329 329 329 329 329 328 329 331 332 332 330 330 329 328 328 328 327 326 324 323 322 321 319 316 316 316 314 313 312 310 308 307
311 313 314 313 314 316 316 315 313 312 311 308 307 309 309 311 313 313 311 311 312 312 313 312 311 310 309 309 309 309 309 308 308 308 308 308 308 307 307 306 305 305 305 305 306 306 307 308 310 313 316 320 321 322 323 324 325 325 326 326 326 326 326 327 327 327 327 328 329 330 329 329 330 331 331 330 329 329 329 329 328 327 326 324 323 322 320 318 317 317 316 314 312 311 309 308 308
312 314 313 313 315 319 318 316 314 312 311 310 310 312 310 309 313 313 309 311 314 313 313 314 311 310 310 310 310 309 309 308 309 309 308 307 306 306 306 306 305 304 304 304 305 306 306 307 308 309 313 317 318 320 322 323 323 324 325 325 325 325 325 325 326 325 325 326 326 327 327 327 328 328 328 327 328 329 329 328 327 326 325 323 323 322 321 319 317 317 315 314 312 309 309 309 309
314 311 312 313 315 317 317 314 312 311 310 310 312 313 310 309 313 312 309 311 313 313 314 313 311 311 311 311 310 310 309 307 307 308 309 308 306 305 305 304 305 305 304 305 305 306 306 307 307 308 311 314 316 319 321 322 322 323 324 324 324 324 324 324 325 325 325 324 325 325 325 325 326 326 325 325 326 329 329 328 328 326 325 324 324 324 323 321 320 319 317 315 313 311 310 309 309
311 307 310 313 314 314 315 313 311 310 310 312 312 310 309 309 315 315 309 310 313 314 313 310 311 313 313 313 312 310 308 308 308 308 309 309 307 306 306 306 307 307 306 305 305 306 306 307 307 309 312 313 315 318 320 320 321 322 323 324 324 324 324 324 324 324 323 323 323 324 324 324 324 324 324 324 325 326 327 327 327 327 326 325 325 325 324 322 320 319 318 317 314 312 310 308 308
309 311 313 313 314 313 312 311 310 310 311 311 308 307 308 308 315 318 312 310 312 312 311 309 311 313 314 314 312 309 308 308 309 309 310 309 308 308 308 309 309 309 308 307 306 307 308 308 309 310 312 313 315 317 318 320 321 322 323 323 323 323 324 323 323 322 322 322 322 323 323 323 323 324 324 324 324 325 326 326 326 327 326 325 324 323 323 322 320 319 317 315 313 311 309 308 307
310 315 314 313 313 312 311 309 310 312 312 308 304 305 308 307 312 315 311 310 311 310 310 310 311 313 315 314 311 308 308 308 309 310 312 311 311 311 311 311 311 310 310 309 308 309 310 310 311 311 313 313 315 317 318 320 321 321 322 323 323 323 323 323 322 321 321 321 321 322 322 321 323 324 325 324 325 325 325 325 325 325 325 324 324 323 322 321 320 318 317 315 312 311 309 308 307
311 314 312 312 313 312 312 312 311 312 310 306 304 306 308 309 310 311 311 311 309 308 310 311 311 311 312 313 311 310 311 312 311 312 314 314 314 313 312 312 312 311 311 311 311 312 312 312 313 313 314 314 316 317 319 320 320 321 322 322 322 322 323 323 322 322 322 322 322 322 322 321 322 324 324 324 324 324 324 323 323 323 323 323 323 322 321 320 319 317 316 315 313 312 310 309 308
311 314 312 312 313 313 313 312 310 311 309 305 304 306 309 310 310 311 312 311 309 307 308 310 309 308 309 309 309 312 315 314 313 314 315 316 314 313 312 311 312 312 312 312 313 313 313 314 314 315 315 316 317 318 319 320 320 321 321 322 322 322 322 322 322 322 322 323 321 321 322 322 323 323 323 323 323 323 323 322 322 322 322 322 321 321 320 318 317 316 315 315 314 313 312 311 310
312 316 314 312 313 313 313 312 311 311 309 306 304 307 310 309 309 312 310 308 308 306 305 306 306 306 306 306 308 313 316 314 313 315 315 313 312 311 310 309 311 312 312 313 314 314 315 315 315 316 316 317 318 319 320 320 321 321 322 322 322 321 321 321 321 321 321 322 321 321 322 323 322 322 322 322 321 321 321 320 320 320 320 319 319 318 317 316 315 315 315 314 314 313 311 310 309
311 311 312 312 313 313 309 308 309 308 308 308 307 309 311 310 310 311 310 307 307 306 305 308 310 308 306 309 313 317 317 313 311 314 314 311 308 308 308 309 310 311 312 313 314 314 315 315 316 316 317 318 318 319 320 320 320 321 321 322 322 322 321 321 321 320 320 320 321 321 322 321 321 321 321 320 320 319 319 318 318 317 317 316 316 315 315 314 314 313 313 314 314 313 311 310 309
310 310 310 310 312 314 309 305 305 305 308 310 309 310 311 309 310 312 312 310 309 308 309 311 312 311 310 314 320 320 318 314 311 311 311 310 308 307 307 309 311 312 313 313 314 315 315 315 316 316 317 317 318 318 318 319 319 320 319 320 321 321 321 321 320 320 319 319 319 320 319 319 319 319 319 318 318 317 317 316 316 315 315 315 314 314 313 313 313 312 312 312 312 312 311 311 310
310 311 311 308 309 312 310 308 307 307 309 310 308 309 309 307 310 314 313 310 310 310 310 310 311 311 313 316 319 318 316 313 311 310 309 309 309 307 307 308 310 311 313 314 314 314 315 315 315 316 316 316 316 316 317 317 317 317 317 318 318 318 318 318 318 318 318 318 317 317 317 316 317 316 316 316 316 316 315 315 315 314 314 314 313 313 312 312 312 311 310 310 310 309 309 310 309
311 311 312 310 311 311 308 309 311 310 310 311 308 306 306 308 310 313 312 310 311 310 310 310 309 311 313 315 316 315 314 314 313 312 311 311 310 308 307 308 309 310 311 312 313 314 314 314 314 315 315 315 315 315 314 315 314 314 315 315 315 315 315 315 315 315 315 315 315 315 315 314 314 314 314 314 314 314 314 314 314 313 313 313 312 311 311 311 310 310 310 309 308 308 308 308 309
308 308 309 311 313 311 309 309 310 310 309 309 309 306 307 310 310 311 311 309 310 309 309 310 311 313 315 315 316 316 316 317 315 313 313 312 311 309 308 308 308 309 310 311 312 313 313 314 313 314 314 314 314 313 313 313 313 313 313 313 313 313 313 313 313 313 313 313 313 313 313 313 313 313 313 313 313 313 313 313 313 312 312 312 311 310 310 310 310 309 309 309 308 308 308 308 307
307 307 309 310 310 309 310 308 307 309 309 309 309 307 308 311 310 310 310 309 309 310 310 311 313 314 315 314 315 316 316 316 316 315 314 313 312 310 309 309 309 310 310 311 311 311 312 312 312 313 313 313 313 313 313 312 312 312 312 312 312 312 312 312 312 312 312 312 312 312 312 312 312 312 312 312 312 312 312 312 312 312 311 310 309 309 309 309 309 309 309 308 308 308 307 307 306
311 309 310 312 311 309 311 311 307 307 308 308 308 308 311 315 311 309 310 309 308 308 310 312 312 312 314 314 314 315 316 315 315 315 315 313 311 309 308 309 309 310 311 311 311 311 311 311 311 312 312 312 312 312 312 312 311 311 311 311 311 311 311 311 311 311 311 311 311 311 311 311 311 311 311 311 311 311 311 311 311 310 309 308 309 309 308 308 308 308 308 308 307 307 307 306 305
Wind_Speed
4 3 2 3 2 1 1 1 1 1 1 1 2 1 3 1 1 5 7 6 4 5 2 3 9 7 2 1 1 3 4 1 3 2 2 4 9 15 10 13 17 17 16 14 15 13 10 9 10 11 12 13 13 14 15 15 15 16 16 16 14 14 14 13 11 12 14 15 15 16 17 18 17 17 17 17 17 17 18 19 19 19 19 19 19 19 19 18 18 19 19 19 19 19 19 19 19
3 2 1 2 2 1 1 1 2 2 2 2 3 1 4 3 3 7 10 6 3 5 4 5 9 4 2 2 1 1 2 4 5 4 4 7 13 13 11 15 17 17 16 15 15 14 11 9 10 11 11 13 13 14 14 15 17 17 16 15 14 14 14 12 12 11 13 14 15 16 17 17 17 17 17 17 17 17 17 17 18 19 18 18 18 18 18 18 18 19 18 19 19 19 19 19 19
3 0 1 2 2 1 1 1 2 2 3 2 3 2 4 5 6 7 7 4 5 7 6 6 7 3 1 2 2 2 2 3 3 4 5 11 13 12 15 17 17 17 16 15 14 14 12 10 10 10 11 13 13 14 14 15 17 16 14 14 14 14 13 12 11 11 14 15 16 17 17 16 16 16 16 16 16 16 16 17 17 17 17 17 17 16 17 17 18 18 18 18 18 18 18 18 18
2 1 2 2 1 1 1 2 1 2 3 1 2 5 6 6 7 7 6 5 6 7 6 7 6 2 3 2 1 1 2 4 3 4 7 12 10 14 19 17 17 16 15 14 14 13 12 11 10 10 11 13 13 13 14 16 17 16 16 15 14 13 12 12 11 11 15 16 15 17 17 16 15 15 15 15 15 16 16 16 16 15 16 17 17 16 16 16 17 17 18 18 18 18 17 17 17
2 1 2 2 2 1 1 1 0 3 1 1 1 6 8 5 8 8 7 7 6 3 4 7 4 2 1 1 2 1 3 4 4 4 9 11 9 16 19 18 17 15 15 14 13 13 12 12 10 10 11 13 13 13 14 15 16 17 17 15 13 12 11 11 11 11 13 15 15 16 16 15 15 15 15 14 14 15 15 14 14 15 16 17 17 16 17 17 17 17 17 17 17 17 17 17 17
1 3 3 2 1 0 1 2 2 3 1 1 1 4 8 6 8 10 9 7 4 1 2 5 2 2 2 1 1 2 3 3 6 7 10 12 12 17 18 18 16 15 15 14 14 13 13 12 10 10 10 12 13 13 14 14 15 17 17 15 13 13 12 10 11 10 11 15 15 15 15 15 15 14 14 15 14 14 15 14 13 15 16 17 17 16 17 17 17 16 16 16 16 16 16 16 16
2 2 3 3 2 1 3 2 2 2 2 2 2 3 8 8 9 12 11 7 3 1 2 3 1 3 2 2 2 2 2 1 6 8 11 13 15 17 17 17 15 15 15 14 13 13 13 12 11 10 9 11 13 12 13 14 16 17 16 15 13 13 12 9 10 10 11 16 16 14 14 14 14 13 13 14 14 14 14 14 14 15 16 16 16 16 16 16 16 16 16 16 16 16 15 15 16
2 0 1 1 2 1 2 2 1 0 1 1 2 0 4 9 10 12 11 6 4 4 4 3 2 3 2 1 2 4 2 2 5 8 13 14 17 18 16 15 15 15 14 14 13 13 13 13 11 10 9 10 12 13 12 13 15 15 14 13 12 13 12 8 9 10 11 14 15 14 13 13 14 13 13 13 14 14 13 13 14 14 15 15 15 15 15 15 15 15 15 15 16 15 15 15 16
1 1 1 2 2 1 1 1 1 0 1 1 1 1 1 6 9 10 11 5 3 5 6 5 4 3 4 4 1 4 3 3 5 9 15 15 17 18 16 15 15 15 14 14 13 13 14 13 12 10 9 9 11 12 11 12 13 13 13 12 12 14 12 9 10 11 11 12 13 12 12 13 13 13 12 13 13 13 13 13 13 13 14 14 14 14 14 14 14 14 14 14 14 14 14 15 15
1 2 1 1 2 2 2 2 1 1 1 1 1 1 3 7 6 7 10 6 4 5 5 4 2 2 3 5 2 3 4 5 7 12 16 16 18 17 15 15 14 14 14 13 13 14 13 14 12 11 10 8 9 11 11 11 12 12 12 12 12 13 12 11 11 10 10 10 10 10 12 12 12 12 12 12 12 12 13 13 13 13 13 13 13 13 13 13 13 13 13 13 13 14 14 14 15
1 1 0 1 3 3 3 2 2 1 1 1 1 2 3 7 6 5 6 5 4 4 6 3 3 4 3 3 2 3 4 7 11 15 17 17 18 16 15 14 13 13 13 13 14 14 13 14 13 11 10 9 9 10 11 10 10 11 10 11 11 12 10 11 13 11 9 9 8 9 11 11 11 11 11 11 11 12 12 12 12 12 12 12 11 11 11 12 12 12 12 13 13 13 13 14 14
2 1 1 3 3 1 1 1 2 2 1 2 3 4 4 6 7 7 6 5 5 4 7 6 3 5 5 2 2 5 5 8 12 15 17 17 18 16 15 13 12 13 13 13 14 14 14 13 13 11 11 10 9 9 10 10 10 10 10 10 10 10 9 10 12 11 10 9 8 8 9 10 10 10 11 11 10 11 11 12 12 12 11 10 11 11 11 11 11 11 11 12 12 13 12 13 14
1 1 3 3 0 0 1 1 2 1 2 3 3 4 5 8 7 8 7 5 7 7 6 6 2 2 3 2 3 5 7 11 13 15 17 16 17 16 15 14 12 12 13 15 15 14 14 13 12 12 11 11 10 9 9 10 9 9 9 10 9 9 8 8 9 10 10 9 9 8 7 8 8 9 11 11 9 9 10 13 13 11 10 9 10 10 10 10 10 10 11 10 11 12 12 13 14
1 1 1 2 1 1 2 1 2 3 3 4 4 6 6 5 2 4 6 6 8 4 2 2 2 2 2 3 3 5 9 14 14 14 16 15 15 15 13 13 13 12 14 15 14 14 14 14 13 12 12 11 10 10 10 10 9 9 9 9 9 8 8 7 7 7 7 7 8 7 6 5 5 8 11 11 9 8 9 12 13 11 9 8 9 9 9 10 10 10 10 10 10 11 11 13 13
1 1 1 2 2 2 2 0 2 3 3 6 5 7 7 1 1 3 5 5 5 2 2 2 1 1 1 3 3 5 12 16 15 15 16 14 14 14 13 12 13 13 14 14 13 13 14 14 13 13 12 11 11 10 10 10 10 9 9 8 8 8 7 6 6 6 6 6 6 5 4 3 4 7 11 10 9 8 7 10 13 11 9 8 9 10 10 10 10 10 10 10 10 10 11 12 13
0 1 1 2 2 2 3 1 2 2 3 7 4 5 8 3 0 4 1 2 3 3 1 3 1 2 2 0 3 5 15 18 15 16 16 15 14 13 13 12 13 13 13 15 13 13 14 14 14 13 13 12 11 10 10 10 10 9 9 8 7 7 6 6 5 5 4 4 4 4 3 3 4 7 9 9 8 8 6 8 11 10 9 8 9 9 10 10 10 10 10 10 10 10 11 12 13
0 2 2 3 2 2 4 5 4 2 4 7 5 8 10 6 2 2 0 2 2 4 2 1 1 2 3 3 4 6 14 17 16 17 16 15 14 14 13 12 13 12 13 15 15 14 14 14 14 13 13 13 12 11 10 10 11 10 9 8 8 7 6 6 5 4 4 4 3 3 3 3 5 7 8 8 8 7 6 7 10 10 9 8 8 9 10 10 10 9 9 9 8 9 10 11 12
2 2 3 3 3 2 4 7 4 1 5 9 9 10 10 8 6 3 3 3 2 4 4 1 1 3 1 2 2 8 14 17 18 19 18 16 15 15 14 13 14 14 13 15 15 15 14 13 14 14 14 14 13 12 11 10 11 10 9 9 9 8 7 6 5 5 4 4 3 3 3 4 5 7 8 9 7 6 7 7 9 10 9 8 8 8 9 9 9 8 8 8 8 8 10 10 11
1 1 2 3 3 2 1 5 4 0 4 10 9 8 6 6 8 5 5 6 4 5 6 4 4 5 5 1 3 10 14 18 19 19 19 18 18 17 16 16 16 15 15 15 16 16 15 14 14 15 14 14 13 13 12 11 11 11 10 9 9 10 9 8 7 6 6 5 4 4 4 4 5 7 9 9 7 7 7 7 8 9 9 9 8 8 8 8 8 8 8 7 7 8 8 8 9
1 1 4 3 2 2 0 3 4 1 2 10 10 5 3 2 5 5 5 5 5 8 7 6 7 9 9 5 7 12 15 18 19 19 19 19 19 18 18 18 18 18 17 16 16 17 16 14 15 15 15 15 14 14 13 11 11 11 10 10 9 10 11 10 9 9 8 7 6 6 5 5 5 6 8 9 9 7 6 7 8 8 9 9 8 6 6 7 8 8 8 7 7 7 7 7 7
2 2 2 2 2 2 2 2 3 2 0 6 10 7 5 3 3 5 5 5 6 9 8 9 9 10 11 8 11 15 17 19 20 20 20 21 20 19 18 18 17 17 16 16 16 16 16 16 15 15 16 16 16 15 14 13 13 11 11 11 10 10 10 10 9 9 9 9 8 7 6 5 5 6 7 9 10 8 7 7 7 7 6 8 7 4 5 7 7 7 7 7 7 7 8 7 7
2 1 2 2 1 1 3 2 3 2 1 5 10 9 7 6 3 5 8 8 4 2 4 6 5 5 10 11 14 17 18 21 21 21 21 22 22 20 19 17 16 16 15 16 16 16 16 16 16 15 15 16 16 15 14 14 14 13 12 13 11 10 11 10 9 8 9 10 9 8 7 6 6 7 7 8 9 9 9 8 8 7 6 7 7 4 5 7 7 7 8 8 8 8 9 9 9
2 1 1 1 1 1 3 2 2 2 4 7 8 6 7 7 5 2 7 9 1 4 2 2 2 3 9 12 14 16 18 21 22 23 23 23 24 22 20 18 17 17 16 16 16 16 16 17 17 17 16 16 17 17 15 14 15 14 14 14 12 11 12 12 9 8 9 10 11 10 8 8 7 7 8 8 9 9 9 10 9 8 7 7 7 6 7 9 10 9 9 8 8 8 9 10 11
2 2 3 1 2 2 1 1 2 1 3 4 3 5 7 8 6 2 7 9 3 4 3 3 2 5 10 12 14 16 18 21 23 24 23 21 22 22 20 18 18 18 18 18 17 16 17 17 17 17 18 18 18 17 16 16 15 14 15 16 12 12 14 14 11 10 9 10 12 12 11 10 9 9 9 9 9 9 10 10 9 9 9 9 9 9 9 11 11 11 10 9 8 9 9 11 12
2 2 4 2 1 2 2 2 4 2 1 2 3 5 4 2 2 2 7 7 2 1 2 3 4 6 9 11 13 14 16 18 19 19 19 18 17 19 20 19 19 19 20 20 19 18 18 17 17 17 18 18 18 17 16 17 17 15 16 18 16 15 15 13 14 14 10 9 12 14 13 12 11 10 10 10 10 10 10 9 9 10 9 9 10 10 11 12 12 11 11 10 10 10 11 12 13
2 4 5 4 2 2 2 3 4 2 2 2 6 5 2 2 1 4 5 2 1 1 1 3 4 6 7 9 12 13 14 17 17 17 18 16 16 19 21 20 20 21 21 20 20 21 19 18 18 18 18 18 18 17 17 18 18 17 17 18 18 19 14 10 15 18 14 10 11 15 15 14 14 12 12 11 11 11 11 10 10 10 10 9 10 11 12 13 13 12 12 11 11 11 12 13 13
5 8 7 5 3 2 1 3 4 2 3 1 5 5 2 2 2 5 2 3 2 2 4 3 4 6 7 8 10 12 13 15 17 15 15 15 16 20 21 21 22 21 20 20 21 21 20 20 20 20 20 20 19 19 19 19 18 18 18 18 19 21 17 13 14 15 15 12 11 16 17 16 15 15 14 12 12 12 11 11 11 10 10 10 11 12 13 13 14 14 13 13 13 13 13 14 14
9 10 9 6 4 4 3 4 3 0 3 1 2 5 2 3 3 4 3 3 2 4 5 4 6 6 6 8 7 9 10 12 13 14 16 18 19 20 22 23 23 21 21 21 21 20 20 21 21 21 21 22 21 20 21 21 18 17 19 19 20 22 21 19 17 16 15 14 13 16 18 18 17 17 16 14 13 13 12 12 12 11 11 11 12 13 13 14 15 15 15 14 14 14 14 15 15
7 5 6 5 3 5 3 2 1 2 2 0 1 3 3 6 7 3 4 2 0 4 5 5 6 5 5 6 6 7 9 10 13 15 18 20 19 19 21 22 21 20 20 20 20 20 21 21 21 21 21 23 23 21 21 22 21 19 19 20 20 22 24 23 20 19 18 17 17 17 19 20 19 19 18 17 15 15 14 13 12 12 12 12 12 13 14 15 15 16 15 15 15 15 15 16 17
4 1 2 5 4 3 2 2 1 1 2 1 3 4 4 9 8 3 4 0 2 5 6 6 6 5 4 5 5 6 8 11 14 17 18 18 18 18 20 20 20 20 18 18 20 22 21 20 21 21 22 23 23 23 22 22 22 21 21 21 21 22 24 23 21 21 20 19 18 18 20 21 21 21 20 19 18 17 16 15 14 14 12 12 12 13 14 15 16 17 17 17 17 17 17 18 18
4 3 1 3 5 4 3 2 1 2 2 1 4 5 3 4 4 3 2 1 3 5 6 6 5 5 5 5 6 7 9 12 15 16 16 16 16 17 18 18 20 21 19 18 21 22 21 20 20 21 23 23 23 23 23 24 24 24 23 23 25 24 24 25 23 22 22 20 19 19 20 21 22 22 22 22 21 19 19 18 17 16 14 14 13 13 15 16 17 19 19 19 20 19 19 20 20
2 4 3 2 3 3 4 2 2 0 2 1 4 5 4 2 2 4 2 1 4 6 5 4 5 5 5 5 6 6 7 11 14 16 17 17 17 17 17 18 19 21 22 20 19 20 21 21 21 20 23 24 24 24 22 22 23 25 26 26 27 26 25 26 25 25 23 21 22 21 20 20 21 22 22 23 23 22 22 21 21 20 18 16 16 16 17 18 20 21 21 21 22 22 22 22 21
1 2 4 3 3 3 3 2 2 2 1 3 4 3 2 0 1 3 2 2 3 5 6 5 5 5 5 5 5 6 6 9 12 17 20 19 19 21 20 20 20 22 23 22 19 20 21 22 22 21 22 22 23 23 23 22 22 22 24 26 27 27 27 28 28 28 25 24 26 26 24 22 21 22 22 23 23 24 25 24 24 24 21 19 19 20 20 21 23 23 23 23 23 23 23 23 23
3 1 1 1 2 3 3 3 1 1 1 4 4 4 5 1 1 2 2 2 1 4 6 6 5 5 5 4 4 6 7 7 10 16 21 23 25 27 26 25 24 23 25 25 23 21 21 21 22 22 22 21 20 21 21 22 23 22 21 22 24 27 29 29 29 30 29 31 31 28 25 24 24 25 25 25 26 26 27 26 26 26 23 22 22 23 23 25 26 25 25 25 25 24 23 24 25
8 6 4 2 2 3 3 3 1 0 2 4 5 6 11 7 6 6 3 2 3 5 5 5 5 5 5 4 5 6 7 9 11 13 17 21 26 30 31 31 29 27 28 29 28 25 22 20 21 22 22 22 21 21 21 20 21 23 23 22 23 24 25 25 25 26 27 30 29 26 25 25 27 30 30 29 29 29 29 27 27 27 26 25 25 26 27 28 29 28 27 26 26 25 24 24 26
9 6 4 4 5 3 1 2 2 0 3 6 8 8 10 10 10 8 3 3 4 7 6 5 6 6 6 5 6 6 7 10 10 11 15 17 22 27 29 31 32 32 32 31 30 29 26 22 21 22 22 22 21 21 22 22 21 21 22 24 26 27 27 26 27 26 25 28 30 31 31 28 28 34 34 30 29 30 29 27 27 28 28 28 29 31 32 31 30 29 29 28 28 28 26 25 25
6 5 2 2 4 3 1 2 3 1 3 6 7 8 10 11 11 10 4 2 5 8 8 8 7 7 6 7 7 7 9 8 7 11 16 17 20 22 24 26 28 29 31 32 32 33 32 28 25 24 23 21 22 22 21 22 25 24 22 23 25 27 28 29 32 31 29 30 33 35 34 28 26 30 31 30 30 31 30 30 30 30 29 31 33 34 34 33 31 30 30 29 28 28 28 27 25
5 6 4 2 2 1 2 1 3 2 3 2 0 6 12 13 12 11 7 6 9 10 10 11 10 8 6 7 9 8 7 5 4 8 11 14 18 19 20 22 23 25 28 31 33 34 35 33 30 28 24 22 23 23 22 22 25 27 25 24 22 22 23 24 27 29 28 29 31 33 32 25 22 25 27 29 32 32 32 33 33 32 32 33 34 34 34 33 32 31 30 29 28 28 28 28 26
4 3 4 4 2 2 2 1 3 2 2 1 1 5 11 12 11 11 10 9 9 9 9 9 8 8 6 6 7 7 7 5 5 7 9 12 16 16 17 19 22 24 25 28 31 32 32 32 34 32 28 25 23 22 23 23 22 24 24 22 21 20 20 21 21 22 21 22 23 26 27 25 25 26 26 30 34 33 35 37 35 34 34 34 34 34 34 33 33 33 32 31 30 28 28 28 29
2 3 4 3 2 3 2 3 3 2 1 1 1 4 9 9 9 10 9 6 6 6 8 8 7 8 7 6 5 5 8 7 6 7 9 10 11 13 17 20 22 24 25 26 28 30 30 31 34 34 32 31 26 22 24 22 19 20 20 19 20 20 22 23 23 23 22 21 22 24 28 29 32 32 27 28 32 34 37 37 35 35 35 34 34 34 34 35 35 35 34 34 32 30 29 30 32
1 2 3 2 4 3 1 4 5 1 1 1 2 5 8 5 7 9 4 1 4 5 6 9 8 8 8 7 7 8 9 8 7 8 8 8 8 10 15 19 22 23 26 28 29 30 31 31 32 32 32 33 30 24 21 20 20 20 20 21 22 21 22 22 24 27 29 29 28 30 31 30 30 32 29 27 29 34 37 33 32 33 33 33 34 34 35 36 36 36 36 36 36 35 32 31 31
2 4 3 2 6 6 4 6 5 3 3 1 1 5 5 1 4 7 1 2 5 3 4 8 6 6 7 7 8 8 8 8 9 9 8 8 8 9 11 16 20 23 26 28 29 29 29 29 29 30 30 30 31 26 19 19 23 24 23 25 25 23 22 22 25 28 29 30 30 30 30 28 27 27 27 27 28 32 33 30 31 32 31 31 32 33 35 36 37 38 38 38 39 40 34 28 28
3 3 3 4 6 7 8 7 4 2 2 1 1 5 4 1 3 3 1 5 6 4 6 7 4 4 5 5 5 5 5 6 6 8 8 8 8 8 10 14 18 21 23 24 25 25 25 26 27 29 29 28 28 24 18 19 23 24 26 26 25 24 22 23 25 25 24 25 27 27 26 27 29 28 27 27 27 30 31 31 32 33 32 31 31 33 35 37 38 39 39 39 39 38 34 28 29
2 1 3 7 7 8 8 7 3 0 1 1 1 2 4 5 3 1 1 5 6 6 7 5 3 4 4 3 4 4 4 4 4 6 7 7 7 8 9 10 12 15 18 19 20 21 23 24 25 26 27 27 26 21 17 19 21 22 23 25 24 22 21 21 20 19 19 20 22 23 24 25 28 29 30 30 29 29 30 32 32 32 33 31 29 31 34 35 38 39 38 38 37 36 35 35 34
0 1 2 5 6 6 6 5 2 1 1 4 2 2 4 5 2 1 1 4 5 7 6 4 3 3 2 2 3 3 3 4 4 5 6 6 6 7 8 8 8 10 13 16 18 18 19 21 23 24 23 25 24 19 17 20 21 20 19 21 22 21 20 19 16 15 16 16 18 19 20 21 22 23 27 28 29 29 28 28 29 29 31 30 30 31 32 34 36 38 38 38 39 39 41 41 39
3 5 5 6 5 5 3 2 3 2 3 5 2 2 4 5 2 2 0 2 6 6 3 2 2 2 1 2 2 2 2 2 3 4 5 5 5 5 6 6 6 7 10 13 15 16 17 18 20 22 21 22 22 18 19 21 21 19 18 19 20 19 19 17 15 16 15 14 16 16 16 18 20 23 25 26 28 29 29 29 30 31 32 32 33 32 31 33 36 39 40 39 40 41 42 42 40
8 7 7 8 4 3 2 1 1 2 4 2 2 2 3 4 2 3 2 2 3 3 1 3 2 2 2 2 2 2 2 2 2 3 3 2 2 2 3 3 4 6 8 11 13 14 14 15 17 19 19 20 19 18 20 21 20 19 19 19 19 18 17 16 17 18 17 17 18 16 16 19 22 24 25 25 28 29 30 31 31 32 31 31 31 32 32 33 36 37 38 38 38 39 40 40 40
4 3 6 7 3 1 2 1 0 4 4 1 2 2 3 5 3 1 1 2 2 2 2 5 4 2 2 2 2 2 3 3 3 2 1 2 3 3 3 3 4 5 7 9 11 12 12 13 15 17 18 19 19 18 20 20 20 20 19 18 18 18 16 15 16 17 17 18 19 16 15 17 21 24 24 25 27 27 29 31 31 31 30 29 30 31 32 31 32 34 35 37 38 38 40 39 40
2 4 8 6 3 3 3 2 2 5 2 2 1 1 3 7 6 5 7 6 4 4 3 3 2 3 3 3 2 2 3 2 2 2 0 2 3 3 3 3 5 6 7 9 10 11 12 14 15 17 18 18 18 19 20 20 20 22 21 19 17 16 15 14 14 15 15 15 16 15 14 16 20 23 24 25 24 24 26 28 30 31 31 31 31 30 30 29 29 31 33 35 37 38 39 40 41
5 7 7 6 5 4 5 3 1 3 0 2 0 1 3 5 5 7 11 6 1 2 5 4 4 6 6 5 5 4 4 2 2 2 1 0 2 3 3 3 5 6 8 9 10 11 13 14 15 16 16 17 18 19 20 20 20 21 22 21 17 14 14 14 13 13 14 14 13 15 18 20 22 23 23 23 22 22 23 25 27 29 30 31 31 31 30 29 28 29 30 32 35 37 37 39 42
3 1 2 5 4 3 5 3 2 2 2 2 1 2 3 2 0 3 6 3 2 3 4 4 5 6 6 5 5 5 3 2 2 2 2 1 1 2 3 4 6 8 9 10 11 12 12 13 15 15 14 15 16 17 18 19 18 19 21 21 19 16 14 14 13 12 13 13 14 17 22 23 24 24 23 22 21 21 22 23 24 25 27 28 29 29 29 29 28 28 30 32 33 35 35 37 39
1 1 1 3 2 2 2 1 0 1 1 2 3 3 3 2 4 3 2 3 3 3 3 3 5 4 3 4 4 3 1 1 1 2 2 2 2 1 3 5 6 8 9 10 11 11 12 12 13 13 12 13 13 14 15 15 16 16 18 19 20 20 19 18 16 14 14 15 17 21 22 22 23 23 23 22 21 21 22 22 23 24 25 25 26 26 26 28 29 29 30 31 32 33 33 35 37
2 2 3 2 1 4 4 1 1 1 3 2 2 3 2 2 5 2 0 2 2 2 2 3 3 2 2 3 2 1 1 1 1 1 1 1 1 1 3 5 6 8 9 9 9 10 10 11 11 12 12 12 12 13 13 13 14 14 15 16 18 19 20 20 18 17 17 17 19 20 18 19 22 22 22 22 21 21 22 23 24 24 24 25 24 24 25 25 26 28 30 31 31 30 32 34 35
2 3 5 3 1 1 1 1 1 0 4 2 1 4 3 1 3 2 1 2 3 2 2 1 2 2 2 2 1 1 2 2 2 1 1 0 1 2 3 5 6 8 9 9 9 9 9 10 11 11 11 11 11 11 11 11 12 13 13 14 15 16 17 18 18 18 19 19 20 20 18 19 21 20 20 21 20 22 23 23 24 25 25 24 23 22 24 24 23 24 27 29 30 28 28 32 33
0 1 3 2 2 2 2 2 2 2 3 2 1 2 3 4 5 1 1 3 2 2 2 2 3 3 2 1 0 1 2 1 1 2 2 2 2 3 3 5 6 8 9 10 11 10 10 10 10 11 11 10 10 9 9 10 10 12 12 12 13 14 14 15 17 18 19 21 21 21 21 21 20 19 19 20 20 22 22 23 24 24 25 26 23 20 21 23 23 22 22 24 27 28 28 30 30
2 1 2 0 1 2 2 2 1 3 3 2 1 1 3 5 5 3 4 3 1 2 3 4 4 3 2 1 0 1 1 2 3 3 3 3 4 4 3 5 6 8 9 10 11 11 10 10 10 10 10 10 9 9 9 10 10 10 11 11 11 12 13 14 15 17 19 20 21 21 21 21 20 20 19 19 20 21 22 23 24 24 25 25 22 19 19 20 20 21 21 20 23 26 28 29 28
3 4 5 3 1 1 1 1 1 1 2 2 2 2 2 2 3 5 5 2 2 2 2 3 4 2 2 1 1 2 2 3 3 3 3 3 4 5 5 5 6 7 8 9 10 10 10 10 9 9 9 9 9 9 9 10 10 10 10 11 11 12 13 13 14 16 17 19 19 19 19 20 20 21 20 20 21 21 22 22 23 24 23 20 20 19 19 19 19 19 19 18 19 21 24 27 28
2 3 5 6 4 3 4 3 1 0 1 2 1 3 3 1 2 3 2 1 2 2 1 2 3 3 4 3 3 2 2 3 2 2 1 2 3 4 4 4 5 6 7 8 8 9 9 9 9 9 9 9 9 9 9 9 9 10 10 10 11 11 11 12 13 13 15 16 16 17 17 18 20 21 20 20 20 21 21 21 21 22 21 19 20 20 20 20 21 20 19 19 19 20 25 30 30
Wind_Direction
338 319 266 205 183 176 73 2 224 108 275 127 112 165 143 102 40 153 146 143 145 151 149 117 147 138 123 339 16 33 9 31 24 343 76 70 137 148 152 145 145 145 144 142 143 144 143 140 128 124 113 106 105 104 106 108 109 107 105 101 101 100 98 99 93 86 92 93 84 88 96 98 98 96 92 89 88 87 85 83 82 81 81 82 83 84 85 85 82 81 82 81 80 80 81 83 85
333 314 223 178 99 230 179 330 258 141 218 152 142 192 113 147 189 168 154 147 106 121 140 142 150 133 39 359 358 175 66 42 25 38 70 119 140 149 155 150 150 148 146 145 146 145 144 141 132 129 117 109 105 105 106 110 112 109 105 101 103 102 100 103 101 92 93 92 83 92 101 101 99 96 92 90 89 88 88 85 83 83 84 84 83 83 85 85 85 84 84 84 84 83 83 84 86
332 299 174 157 71 349 136 217 254 176 214 154 144 135 131 177 177 154 137 106 77 116 132 134 151 144 225 182 178 249 104 76 87 86 100 139 145 157 157 153 153 149 148 147 149 147 145 145 137 134 121 112 105 104 105 109 114 111 106 103 104 104 102 100 101 105 100 90 86 98 104 102 101 97 94 91 90 89 88 86 84 85 84 83 82 84 85 85 86 87 88 87 87 86 85 86 88
330 253 220 240 150 204 194 214 258 217 212 153 138 145 176 188 154 126 96 89 106 132 140 149 157 111 292 244 82 310 117 104 132 116 134 154 152 154 155 155 155 150 150 151 154 149 147 147 141 138 124 115 110 107 108 111 113 112 111 106 104 106 110 104 95 97 101 96 88 97 103 102 101 98 97 96 96 94 90 89 89 89 88 86 85 86 89 90 88 88 89 89 88 87 86 87 89
341 342 239 260 226 177 168 179 152 238 211 157 132 148 187 180 137 121 102 116 123 143 152 170 169 87 290 333 352 300 113 109 142 149 148 155 149 150 156 157 156 155 154 155 157 151 151 150 142 140 129 121 117 111 112 113 114 117 117 109 104 107 109 107 102 98 103 104 94 96 102 103 102 100 99 98 98 95 88 89 95 95 90 90 89 88 90 92 91 89 88 89 88 88 88 90 92
77 67 77 80 100 33 184 183 189 214 40 341 15 138 177 162 137 126 121 127 118 322 166 184 165 124 181 113 313 352 67 111 142 156 153 155 153 153 157 157 159 160 157 159 159 153 154 152 144 143 135 125 120 117 116 115 116 119 119 110 107 107 103 106 110 109 111 109 103 101 104 106 104 103 100 96 94 94 89 85 90 94 91 90 92 91 91 91 92 90 90 90 90 90 91 92 95
209 113 76 102 112 300 221 200 206 191 59 353 358 121 160 150 139 132 139 148 146 220 200 205 144 164 160 111 195 107 48 98 133 155 159 156 154 155 158 160 162 162 160 162 161 155 157 155 149 146 141 132 124 123 121 119 120 120 118 112 111 111 107 112 111 110 115 111 108 100 102 108 106 103 100 97 95 94 93 88 85 87 88 89 91 91 91 91 92 91 91 91 91 91 91 93 94
236 221 4 205 144 329 226 191 206 183 59 334 319 65 140 146 150 146 153 161 160 171 179 183 196 209 133 106 190 123 123 148 143 152 156 155 154 157 161 164 165 165 164 164 165 158 161 160 155 150 146 141 131 129 126 125 126 123 120 115 119 121 111 113 111 104 107 110 111 103 101 111 109 104 101 100 97 95 96 95 90 85 85 88 91 92 91 92 92 93 93 93 95 94 94 96 96
27 8 225 215 172 148 174 190 184 20 128 196 231 241 115 158 163 155 156 152 144 162 168 159 192 228 132 153 131 120 157 157 158 152 157 158 157 160 162 168 168 169 167 167 169 162 165 165 161 157 152 152 139 132 131 130 130 127 125 122 127 130 121 120 118 107 108 109 111 105 103 113 113 108 104 102 99 98 97 96 94 91 90 91 93 94 94 96 95 96 96 97 98 98 99 99 101
47 12 205 168 185 195 190 188 166 158 158 196 217 177 156 170 178 163 156 141 141 157 139 121 182 234 146 157 110 120 155 148 154 153 160 160 158 163 162 169 172 172 172 171 172 164 169 172 167 165 159 159 148 139 137 136 133 130 129 128 131 135 129 125 123 116 116 113 108 107 107 113 115 111 107 104 101 98 99 99 99 96 95 95 97 98 98 99 100 100 99 100 100 100 101 100 103
169 60 271 183 192 207 202 181 158 148 126 247 208 151 157 171 175 158 145 125 141 150 135 152 188 184 171 164 111 107 135 151 153 153 161 161 160 164 162 169 175 177 177 176 175 169 172 175 172 171 168 165 159 150 144 142 138 134 132 131 132 133 130 129 130 126 123 119 113 110 110 112 114 117 114 110 107 103 103 105 105 102 102 105 106 105 103 103 103 103 102 103 103 103 105 107 109
207 126 219 201 196 215 187 157 149 134 132 209 168 140 151 170 174 165 164 144 156 161 161 193 180 157 172 166 129 119 140 158 157 157 161 161 161 164 167 170 174 178 182 182 178 174 173 176 177 176 175 172 168 160 152 151 146 142 137 137 138 133 129 131 135 133 132 131 126 119 115 116 117 122 124 122 120 116 112 111 110 108 113 121 116 109 107 108 110 108 107 107 109 109 111 115 118
236 164 204 191 190 51 135 140 135 138 179 184 147 131 154 171 184 177 167 142 160 171 170 183 159 191 193 123 114 140 161 164 160 160 161 163 161 165 170 170 174 179 186 186 182 180 176 176 181 181 180 176 173 169 163 159 155 152 144 143 143 138 134 130 133 137 139 137 135 137 131 128 125 125 132 135 135 131 122 119 115 111 118 125 116 110 110 112 115 113 112 112 115 116 115 120 124
255 209 231 166 78 161 152 112 152 195 171 135 119 133 166 184 197 172 165 164 171 171 116 141 169 238 205 143 158 170 167 162 161 160 161 164 160 165 170 171 175 180 187 188 187 186 183 181 182 186 184 178 178 176 173 170 165 161 154 151 147 141 139 133 131 135 140 139 139 144 140 137 124 126 140 146 152 148 127 122 121 117 116 119 115 114 115 115 118 118 118 118 120 121 118 124 129
204 143 56 131 134 172 183 335 155 213 160 133 138 147 169 193 17 178 188 191 162 83 61 140 221 270 223 187 163 156 158 157 160 159 160 162 160 165 169 174 178 182 188 187 191 192 190 189 186 188 186 184 184 181 179 177 174 169 162 157 153 149 144 136 132 131 136 141 145 149 145 139 118 129 148 154 161 160 139 128 129 127 117 117 121 119 119 119 119 120 121 124 126 125 122 129 134
253 151 119 137 159 196 184 186 160 213 151 134 138 155 168 149 206 197 237 291 128 104 204 169 180 306 321 322 53 107 146 153 158 157 157 159 159 164 168 177 181 185 189 190 195 196 195 195 192 191 188 189 189 183 180 181 180 175 172 165 161 160 154 146 138 132 132 137 145 149 141 131 122 133 152 161 165 165 156 138 135 134 127 127 131 126 125 122 120 123 126 130 131 130 129 135 140
252 205 204 167 176 212 174 175 178 165 130 133 148 175 176 153 181 225 22 281 137 140 209 128 140 284 341 35 50 107 143 153 156 155 157 160 161 165 172 180 183 189 193 195 199 198 199 198 198 197 193 195 195 189 181 183 186 179 178 176 173 172 169 162 153 148 143 142 140 139 137 132 129 133 155 169 169 169 163 150 144 143 144 145 143 135 132 130 128 129 127 127 127 129 134 140 145
221 209 206 191 171 183 177 178 177 108 146 156 169 186 186 162 162 171 173 193 118 152 190 165 189 222 254 22 117 143 151 160 160 160 162 165 169 170 176 184 188 192 194 197 202 202 201 201 200 200 199 198 198 194 187 190 190 181 180 179 181 184 184 180 174 173 166 163 158 148 148 145 140 140 160 171 164 165 163 160 157 155 159 161 158 148 144 143 138 130 123 120 121 131 139 142 149
212 163 208 208 168 137 172 169 155 17 147 150 164 189 200 170 157 169 194 179 159 192 194 190 210 199 189 206 163 156 159 166 167 170 170 172 176 177 181 187 192 195 196 198 201 203 203 203 203 202 202 200 200 198 193 197 192 185 185 183 184 187 189 192 190 190 187 183 178 169 167 163 155 152 167 178 179 177 177 176 170 169 171 175 176 168 163 153 138 129 123 123 128 139 145 145 151
194 203 215 188 152 124 99 173 144 70 129 146 157 173 203 159 143 172 197 172 182 212 201 190 209 206 188 156 159 164 166 173 176 178 179 182 183 183 186 188 193 196 197 198 199 203 204 203 203 204 204 202 203 202 199 199 195 191 192 191 189 188 190 194 195 197 197 195 190 183 182 178 170 168 170 182 191 184 183 188 184 182 185 191 186 180 184 158 136 134 131 133 143 155 159 153 155
169 212 238 113 142 146 143 181 120 86 163 151 142 149 176 144 146 186 181 175 203 224 218 208 212 199 178 152 162 171 173 179 184 186 187 189 189 191 193 192 195 196 197 198 200 202 203 204 203 204 205 206 207 205 204 201 197 194 197 200 194 191 192 192 194 198 200 200 197 195 196 188 175 181 179 182 191 185 179 180 180 182 189 199 188 176 185 161 143 146 148 155 163 171 174 167 163
168 211 344 56 220 148 123 142 119 111 108 145 144 155 156 130 167 197 194 206 211 225 228 227 232 181 165 157 164 172 180 185 188 192 193 194 194 196 197 196 195 196 198 198 201 203 203 205 204 203 205 208 209 208 209 207 202 199 201 204 198 196 195 194 194 193 199 201 204 206 201 198 188 191 195 195 199 198 193 185 182 183 184 198 195 186 184 169 162 169 171 177 180 182 185 182 176
202 177 39 75 308 45 112 117 136 151 151 159 159 146 132 148 182 188 216 226 82 56 2 310 332 102 144 148 160 174 184 190 194 197 197 197 198 198 198 197 197 198 201 201 202 204 205 205 205 205 205 208 211 212 214 213 211 207 207 206 199 199 199 198 198 195 201 200 205 212 208 206 203 203 207 210 209 206 207 203 201 198 195 205 206 198 189 178 176 184 190 193 191 189 193 193 190
258 155 134 134 344 11 53 98 135 167 163 151 140 138 150 178 177 119 230 233 109 82 20 5 63 122 142 149 167 182 188 193 198 201 200 202 202 201 201 201 203 203 206 207 206 208 209 207 205 205 206 210 212 213 215 217 217 213 215 215 206 208 207 204 204 200 201 202 207 212 213 213 211 213 216 219 218 214 216 216 216 214 214 220 215 202 192 188 190 196 201 201 201 198 198 198 197
246 148 142 145 23 51 54 99 126 138 130 105 148 156 151 165 136 162 230 227 166 97 59 72 109 133 157 166 175 184 191 198 201 203 205 208 207 206 207 207 209 209 211 211 210 213 213 209 207 206 207 210 212 213 215 217 219 215 219 223 219 219 215 208 212 211 206 205 209 213 214 216 217 219 222 225 225 223 226 225 226 227 228 227 215 204 198 198 202 205 206 207 208 204 202 202 201
159 123 131 134 92 73 90 103 109 127 109 157 171 141 68 67 357 246 223 190 60 340 131 124 134 157 175 177 181 186 193 200 201 203 205 207 207 209 211 210 212 213 213 213 212 214 216 213 209 209 210 211 212 214 216 218 220 218 219 224 223 225 220 209 215 216 214 210 211 217 218 219 221 224 228 230 230 231 232 230 231 233 235 231 218 211 207 206 211 214 214 213 212 208 206 206 203
109 116 106 100 101 68 44 102 98 118 97 259 182 127 68 97 270 242 154 48 349 216 182 172 186 186 187 184 186 190 196 201 200 202 204 205 207 210 212 212 214 215 213 214 215 215 215 216 213 211 212 213 214 215 219 219 221 221 222 224 226 228 221 214 222 219 215 213 214 220 223 224 224 228 232 233 234 236 236 233 235 236 238 237 225 220 216 214 217 220 220 217 215 213 212 210 205
121 129 105 81 95 92 56 102 104 145 112 311 185 122 82 109 229 226 98 28 285 209 194 192 213 203 189 189 188 194 202 202 200 203 206 206 207 208 210 211 213 213 214 216 215 215 215 216 216 213 213 215 216 217 220 221 221 222 223 225 229 232 229 227 231 228 222 219 218 220 225 230 228 230 234 234 236 237 236 235 237 238 239 240 234 228 224 221 223 225 226 225 221 218 217 214 209
130 145 119 106 125 105 51 83 72 302 135 259 206 157 188 192 215 176 94 15 152 205 209 196 214 211 191 193 197 202 205 199 198 208 211 210 209 208 210 211 209 210 214 216 216 217 216 216 217 216 216 216 217 218 220 223 224 224 223 223 225 230 236 237 233 230 231 230 229 225 227 232 233 234 236 235 237 238 237 237 239 241 241 241 239 235 229 227 228 229 230 229 226 223 220 219 215
142 165 132 137 176 146 44 22 316 276 130 302 240 223 215 202 213 131 94 309 158 200 207 202 212 208 202 199 207 212 208 204 206 213 214 213 212 212 214 212 208 209 212 213 215 217 216 216 217 217 218 217 219 220 221 223 223 225 227 226 225 227 233 238 236 233 234 236 238 233 229 232 233 236 237 237 238 239 240 240 239 242 245 245 244 240 233 229 231 231 230 228 227 225 222 222 218
138 144 188 161 195 169 82 32 298 188 144 301 234 239 249 186 184 110 78 202 196 220 204 201 210 206 213 205 214 221 213 214 217 221 219 218 216 215 217 214 210 210 209 211 213 214 215 216 217 217 218 218 220 223 223 224 224 226 229 231 232 232 233 233 236 239 239 242 245 243 239 237 235 236 237 238 239 239 242 243 240 241 244 245 244 242 235 232 234 234 231 228 226 224 222 223 219
116 163 177 179 219 169 102 67 344 175 142 235 223 240 256 210 141 108 76 164 199 236 222 207 217 216 219 211 221 227 222 223 227 231 228 224 223 221 220 216 213 211 211 213 212 212 214 215 217 220 223 223 223 224 224 225 225 228 231 235 236 237 237 235 237 242 241 240 243 244 245 244 241 240 239 238 240 240 242 243 242 241 240 239 239 239 236 234 233 232 231 229 227 225 223 223 220
191 224 167 163 207 176 142 120 21 0 136 205 229 266 267 249 52 106 95 125 166 238 243 236 235 230 227 219 222 227 229 227 228 234 232 228 227 227 225 221 219 217 217 216 212 212 214 215 217 220 224 226 226 227 228 226 224 226 230 235 237 236 239 239 240 243 241 239 239 239 239 240 242 242 241 239 239 242 243 243 243 242 238 236 235 235 235 233 231 230 231 229 227 226 225 223 220
171 243 134 149 202 180 177 148 92 355 204 210 209 256 256 200 161 194 159 135 151 248 250 246 244 242 234 223 224 228 232 230 228 229 227 227 229 231 231 229 227 225 225 225 219 216 216 216 217 220 222 224 225 226 229 231 229 227 227 231 235 236 238 239 237 237 237 236 235 237 239 241 243 241 239 237 236 239 242 241 242 244 241 237 236 235 234 232 232 230 229 229 226 224 224 224 222
172 184 175 161 206 219 209 150 110 231 202 217 203 235 250 239 236 240 202 157 234 256 254 259 255 253 246 233 234 232 232 238 235 227 221 224 230 234 235 235 234 232 232 232 227 223 219 218 219 221 222 221 223 224 225 228 230 231 231 232 232 233 233 232 231 230 231 233 234 239 241 243 247 244 239 238 236 238 240 240 243 245 243 240 238 236 233 233 234 231 227 228 227 224 225 224 223
175 174 166 157 177 207 214 96 46 288 197 220 221 233 254 253 251 255 221 149 246 264 261 258 250 248 247 238 238 233 235 242 240 237 235 231 233 236 237 237 238 237 236 235 232 228 223 219 219 221 221 220 221 224 224 223 223 226 229 230 230 232 232 231 233 233 235 240 242 242 239 239 247 247 241 240 241 241 241 241 244 244 243 240 237 236 235 235 236 232 228 227 226 225 226 226 225
154 142 136 155 176 170 117 93 54 0 222 223 233 253 266 265 263 264 247 190 251 262 259 255 245 236 232 231 234 229 232 241 244 249 248 242 239 238 237 237 237 236 237 235 233 232 229 223 218 219 219 217 218 219 220 220 220 221 221 224 227 230 232 231 232 233 237 242 241 240 239 238 245 247 243 242 243 243 241 239 241 242 242 240 238 238 238 238 237 234 230 228 227 227 227 228 227
143 162 166 172 215 136 83 82 72 48 239 218 225 266 262 259 263 265 250 232 245 246 247 250 245 237 226 226 233 232 233 235 230 241 243 239 239 237 234 234 232 231 234 234 233 233 232 226 222 221 217 214 217 216 216 218 221 222 221 223 225 227 228 226 227 230 234 236 236 236 236 236 242 246 245 245 243 242 240 236 237 240 241 241 239 237 237 237 236 234 230 228 227 227 229 229 225
140 160 168 177 181 129 104 103 86 61 247 238 70 264 264 260 261 262 246 236 239 236 240 249 250 243 231 225 231 236 243 236 218 227 233 233 237 236 233 233 232 232 232 233 233 232 229 226 225 225 221 217 218 216 216 218 220 223 225 228 228 227 227 224 222 225 228 229 230 232 232 237 248 249 248 250 245 242 240 236 236 240 242 242 241 238 237 236 234 232 231 230 228 225 226 229 226
139 137 165 173 147 166 190 153 125 55 330 325 317 269 275 263 253 253 242 238 254 256 255 256 253 248 246 248 253 250 249 248 231 232 236 230 232 235 235 236 236 234 231 232 233 230 226 226 227 226 224 223 220 218 218 218 219 222 225 229 231 230 233 232 231 233 236 237 237 238 241 247 250 247 246 251 249 243 240 238 239 242 244 245 244 240 239 239 236 234 232 231 227 222 223 227 228
213 195 173 135 162 191 10 116 131 114 173 320 302 271 271 249 239 246 227 212 262 257 254 250 239 236 246 263 265 252 249 258 257 248 245 235 229 233 237 239 238 236 235 234 234 230 227 227 228 226 226 225 223 221 220 218 218 220 221 223 227 231 234 235 234 236 239 239 241 242 244 247 246 242 243 251 252 245 241 242 244 246 248 249 245 243 243 243 239 236 234 232 230 226 224 226 226
204 227 195 140 168 157 100 126 145 183 199 134 324 261 257 190 232 239 218 336 254 218 232 245 229 209 221 239 246 241 241 252 257 259 261 256 245 238 239 241 240 239 238 237 235 233 232 230 230 228 226 226 225 223 219 215 215 217 217 216 219 222 226 227 227 231 233 233 235 236 239 244 243 239 242 250 252 247 244 246 247 247 249 248 246 246 245 242 239 238 237 235 233 231 226 223 224
194 220 160 124 141 135 135 155 169 210 202 95 326 252 255 276 236 210 17 299 271 242 233 237 227 213 212 220 231 231 237 243 250 257 261 261 254 244 241 242 243 242 241 240 237 236 235 233 232 230 228 227 224 220 214 211 213 215 217 216 217 220 224 229 231 233 234 234 235 235 236 241 241 239 243 249 250 248 247 248 249 249 247 244 244 246 244 241 240 240 239 237 236 232 227 224 226
175 203 130 129 138 142 148 158 176 301 80 141 152 278 271 269 248 122 338 276 269 258 238 219 212 222 210 216 235 236 241 248 253 260 260 258 250 242 244 248 248 243 239 238 234 232 232 231 230 230 227 225 222 216 208 208 210 212 216 218 221 223 226 232 236 235 235 235 237 238 237 238 240 241 245 247 248 248 248 247 248 247 243 241 245 249 248 245 243 241 240 240 237 232 229 230 230
158 220 116 122 125 128 140 147 142 63 250 209 142 30 266 256 234 117 332 272 257 251 228 189 183 191 190 234 251 253 255 256 255 261 266 260 248 245 250 256 253 240 231 227 224 225 228 227 227 226 224 223 221 213 206 209 211 211 212 216 220 224 227 232 235 234 233 233 235 236 236 236 237 241 244 243 243 246 247 248 250 249 246 247 252 254 254 251 247 244 243 243 241 236 235 234 231
143 154 106 95 91 88 106 131 126 121 244 224 126 30 263 258 232 171 87 267 250 248 211 165 194 192 230 259 270 282 278 267 256 261 267 261 250 247 247 247 243 231 219 213 212 216 220 220 220 219 218 219 217 211 210 213 211 209 210 213 216 221 225 228 231 231 229 229 233 234 234 236 239 244 246 243 241 243 247 250 253 253 252 253 253 251 252 250 246 245 246 246 245 240 237 234 232
143 154 112 98 86 70 83 52 87 189 239 218 75 4 278 269 252 190 201 243 243 258 154 152 199 221 228 238 272 307 314 308 296 281 261 238 211 199 193 194 205 207 199 195 199 202 207 211 212 212 213 215 214 212 214 214 210 209 211 214 216 219 223 225 227 229 229 231 234 236 237 241 245 246 247 245 243 244 246 248 250 251 252 252 250 248 250 250 247 246 246 246 244 240 237 235 235
146 169 134 117 95 90 124 82 167 226 227 108 48 330 252 241 246 176 270 281 248 255 161 148 169 207 228 234 275 311 320 314 311 306 189 143 133 122 122 137 157 175 176 177 184 188 193 199 202 205 209 212 213 213 213 211 209 211 214 215 218 220 222 225 228 230 231 233 236 237 238 242 246 246 246 246 246 246 246 246 246 248 250 251 250 250 251 253 251 249 247 246 244 241 239 236 237
207 167 157 150 136 155 191 184 208 233 230 67 27 294 238 244 260 275 273 263 225 230 236 197 218 275 284 301 322 317 312 305 307 309 323 119 116 108 109 123 139 157 166 169 174 178 185 190 193 199 205 207 209 210 210 210 213 216 217 218 220 224 225 227 231 233 234 235 237 235 233 239 246 248 248 248 250 249 248 247 246 246 248 250 252 253 254 255 253 251 249 247 246 244 243 241 241
191 168 168 171 151 164 196 180 232 258 274 58 301 261 250 256 267 257 256 265 134 220 251 258 271 280 288 308 318 306 302 308 313 310 309 56 102 110 112 126 144 156 163 168 171 175 182 185 188 195 201 202 204 207 209 211 215 218 220 221 222 225 228 229 232 235 236 236 234 233 237 244 249 253 255 255 256 254 251 250 249 249 249 249 251 253 255 256 254 253 252 250 250 248 247 246 245
186 177 162 180 170 183 197 179 206 216 105 90 197 236 231 219 89 235 250 301 348 254 262 271 267 271 283 298 296 286 294 332 329 309 306 318 29 107 125 137 153 161 164 168 171 174 179 182 185 189 195 199 202 206 209 213 218 221 224 226 227 228 230 232 233 236 237 235 237 244 249 251 252 256 259 261 260 257 254 252 251 250 249 249 250 251 252 252 252 252 253 252 251 248 244 244 244
179 2 68 201 185 130 126 65 72 106 75 154 193 246 250 272 291 266 253 287 264 239 247 256 261 266 277 287 280 271 304 7 289 284 303 310 335 77 118 136 153 163 165 167 171 172 175 178 182 185 190 196 199 204 209 215 221 226 229 233 235 237 239 240 240 241 242 242 246 252 254 255 255 258 260 261 261 258 256 254 252 250 248 248 248 248 249 249 248 248 249 250 250 248 245 245 245
147 158 178 197 58 99 116 108 51 359 257 196 173 251 270 297 282 279 61 265 240 215 221 226 262 283 277 266 260 266 329 304 240 231 249 293 342 87 131 146 153 159 162 164 167 169 173 175 177 180 187 192 197 203 209 214 221 227 232 236 239 243 246 249 250 251 253 253 253 252 251 253 256 258 260 261 260 258 256 255 254 253 251 248 248 247 247 248 248 247 246 246 247 249 250 250 250
145 173 168 141 65 63 129 167 101 141 243 215 167 246 268 234 248 336 10 236 213 212 228 232 268 263 235 237 244 332 299 265 236 169 156 192 51 84 135 158 160 156 156 158 160 166 173 175 177 180 187 191 195 203 209 216 224 230 235 239 243 248 252 255 257 260 263 263 262 259 257 257 258 259 261 261 261 260 258 256 255 255 254 252 250 248 248 247 246 246 246 246 247 248 250 252 252
309 193 142 127 186 200 176 182 170 183 229 248 198 251 270 213 212 290 275 206 206 213 200 197 213 206 202 211 30 319 268 232 104 93 96 81 62 67 113 147 160 160 158 156 157 164 170 174 179 182 185 189 193 201 208 216 225 231 237 241 245 250 254 258 261 263 266 266 266 266 265 265 265 264 263 263 263 263 262 261 258 257 257 256 253 251 250 249 246 246 247 247 248 248 248 251 252
52 139 139 7 282 203 178 164 181 201 211 243 246 242 237 214 210 221 204 180 168 175 165 185 202 192 189 187 125 225 173 86 71 65 62 60 57 60 98 134 150 157 159 158 159 163 167 174 181 185 188 192 197 204 211 220 227 232 237 240 242 246 249 254 258 261 264 265 266 268 268 270 271 268 266 264 264 264 264 264 263 262 260 257 254 251 250 250 248 248 247 246 247 246 246 249 252
147 167 171 175 106 53 201 121 59 225 194 197 239 248 239 219 204 209 205 177 164 164 142 177 202 197 187 205 210 182 115 79 63 58 54 50 57 64 87 116 133 143 151 155 159 163 168 175 182 188 195 199 205 213 219 225 231 234 236 237 238 241 244 249 253 257 262 266 269 271 273 273 272 271 269 266 264 263 262 262 263 263 260 256 253 251 251 250 249 248 246 244 244 242 244 248 253
166 190 184 176 144 132 185 192 129 20 216 177 208 261 268 230 185 211 215 198 197 196 167 188 198 189 177 181 196 173 116 95 73 47 30 28 41 54 71 101 115 124 134 144 152 158 165 174 182 188 195 200 207 214 219 223 229 233 235 235 234 236 240 246 252 258 264 268 272 275 277 276 274 272 271 268 266 264 263 263 263 261 258 254 254 252 251 250 249 249 247 246 245 243 247 251 254